This is the latest recevied weather packets stored in our database for station/object AI5KP-13. If no packets are shown the sender has not sent any weather packets the latest 10 day(s).
| Time | Temp. | Humidity | Pressure | Rain* | Wind** | Luminosity | Snow |
|---|---|---|---|---|---|---|---|
| 1778304919 | 13.89° C | 93% | 1010.5 hPa | 0 mm | - | 0 W/m² | - |
| 1778304616 | 13.89° C | 92% | 1010.7 hPa | 0 mm | - | 0 W/m² | - |
| 1778304314 | 13.89° C | 91% | 1010.6 hPa | 0 mm | - | 0 W/m² | - |
| 1778304012 | 13.89° C | 90% | 1010.5 hPa | 0 mm | - | 0 W/m² | - |
| 1778303710 | 14.44° C | 89% | 1010.5 hPa | 0 mm | - | 0 W/m² | - |
| 1778303407 | 14.44° C | 89% | 1010.5 hPa | 0 mm | - | 0 W/m² | - |
| 1778303103 | 13.89° C | 91% | 1010.4 hPa | 0 mm | - | 0 W/m² | - |
| 1778302800 | 13.89° C | 93% | 1010.4 hPa | 0 mm | - | 0 W/m² | - |
| 1778302497 | 13.89° C | 92% | 1010.4 hPa | 0 mm | - | 0 W/m² | - |
| 1778302194 | 13.89° C | 92% | 1010.4 hPa | 0 mm | - | 0 W/m² | - |
| 1778301892 | 13.89° C | 92% | 1010.5 hPa | 0 mm | - | 0 W/m² | - |
| 1778301589 | 13.89° C | 91% | 1010.4 hPa | 0 mm | - | 0 W/m² | - |
| 1778301284 | 14.44° C | 90% | 1010.5 hPa | 0 mm | - | 0 W/m² | - |
| 1778300980 | 13.89° C | 91% | 1010.3 hPa | 0 mm | - | 0 W/m² | - |
| 1778300677 | 13.89° C | 91% | 1010.4 hPa | 0 mm | - | 0 W/m² | - |
| 1778300373 | 15° C | 89% | 1010.2 hPa | 0 mm | - | 0 W/m² | - |
| 1778300070 | 14.44° C | 90% | 1010.1 hPa | 0 mm | - | 0 W/m² | - |
| 1778299767 | 15° C | 89% | 1010.2 hPa | 0 mm | - | 0 W/m² | - |
| 1778299465 | 15° C | 87% | 1010.2 hPa | 0 mm | - | 0 W/m² | - |
| 1778299162 | 15° C | 87% | 1009.8 hPa | 0 mm | - | 0 W/m² | - |
| 1778298859 | 15° C | 88% | 1009.9 hPa | 0 mm | - | 0 W/m² | - |
| 1778298555 | 15° C | 89% | 1010 hPa | 0 mm | - | 0 W/m² | - |
| 1778298253 | 15° C | 89% | 1009.9 hPa | 0 mm | - | 0 W/m² | - |
| 1778297950 | 15.56° C | 87% | 1009.7 hPa | 0 mm | - | 0 W/m² | - |
| 1778297647 | 15.56° C | 86% | 1009.6 hPa | 0 mm | - | 0 W/m² | - |
* Rain latest hour (hover to see other rain measurements)
** Current wind speed in m/s (hover to see current wind gust speed)